Location: Sweetwater (historical)
(38.4624°N, 119.1749°W)
Time: 13:36:04
(UTC+00:00)

CZ-4B R/B - Pass Details

Date: 13 August 2020
Orbit: 391 x 463 km, 97.6° (Epoch: 20 September)

Event Time Altitude Azimuth Distance (km) Brightness Sun altitude
Rises 12:08:30 0° 158° (SSE) 2,390 5.0 -11.8°
Reaches altitude 10° 12:10:32 10° 154° (SSE) 1,515 4.0 -11.4°
Maximum altitude 12:13:42 54° 75° (ENE) 515 2.1 -10.9°
Drops below altitude 10° 12:16:49 10° 357° (N) 1,489 4.4 -10.3°
Sets 12:18:49 0° 353° (N) 2,344 5.3 -10.0°
